Stephenville, TX

3:11 PM CDT on June 27, 2017 (GMT -0500)
Clark Municipal

Weather History for KSEP - July, 2013

Change the Weather History Date:

Friday, July 26, 2013

  Actual Average Record
Temperature  
Mean Temperature 86 °F -  
Max Temperature 95 °F 95 °F 107 °F (1954)
Min Temperature 77 °F 70 °F 62 °F (2004)
Cooling Degree Days 21    
Growing Degree Days 36 (Base 50)    
Moisture  
Dew Point 68 °F    
Average Humidity 59    
Maximum Humidity 75    
Minimum Humidity 41    
Precipitation  
Precipitation 0.00 in - - ()
Sea Level Pressure  
Sea Level Pressure 30.01 in    
Wind  
Wind Speed 6 mph (SW)    
Max Wind Speed 16 mph    
Max Gust Speed 22 mph    
Visibility 10 miles    
Events      
Averages and records for this station are not official NWS values.
T = Trace of Precipitation, MM = Missing Value Source: NWS Daily Summary

Daily Weather History Graph

Daily Weather History Graph

Search for Another Location

Airport or City:

Trip Planner

Search our weather history database for the weather conditions in past years. The results will help you decide how hot, cold, wet, or windy it might be!

Date:

Astronomy

Jul. 26, 2013 Rise Set
Actual Time 6:43 AM CDT 8:34 PM CDT
Civil Twilight 6:16 AM CDT 9:01 PM CDT
Nautical Twilight 5:44 AM CDT 9:33 PM CDT
Astronomical Twilight 5:09 AM CDT 10:08 PM CDT
Moon 11:10 PM CDT (7/26) 11:01 AM CDT (7/26)
Length of Visible Light 14h 44m
Length of Day
13h 50m
Waning Gibbous, 80% of the Moon is Illuminated
Jul 26
Waning Gibbous
Jul 29
Last Quarter
Aug 6
New
Aug 14
First Quarter
Aug 20
Full

Hourly Weather History & Observations

Time (CDT) Temp. Heat Index Dew Point Humidity Pressure Visibility Wind Dir Wind Speed Gust Speed Precip Events Conditions
12:15 AM 82.4 °F 86.3 °F 69.8 °F 66% 30.05 in - SSE 5.8 mph - N/A   Clear
12:35 AM 81.9 °F 85.6 °F 70.0 °F 67% 30.05 in - SSE 4.6 mph - N/A   Clear
12:55 AM 81.1 °F 84.7 °F 70.0 °F 69% 30.04 in - SSE 4.6 mph - N/A   Clear
1:15 AM 80.6 °F 83.9 °F 69.8 °F 70% 30.04 in - South 3.5 mph - N/A   Clear
1:35 AM 80.2 °F 83.3 °F 69.8 °F 70% 30.04 in - SSE 3.5 mph - N/A   Clear
1:55 AM 79.7 °F - 70.2 °F 73% 30.04 in - Calm Calm - N/A   Clear
2:15 AM 78.8 °F - 70.2 °F 75% 30.02 in - Calm Calm - N/A   Clear
2:35 AM 78.1 °F - 69.4 °F 75% 30.01 in - SSE 3.5 mph - N/A   Clear
2:55 AM 77.9 °F - 69.4 °F 75% 30.02 in - SSE 3.5 mph - N/A   Clear
3:15 AM 77.9 °F - 69.4 °F 75% 30.02 in - South 3.5 mph - N/A   Clear
3:35 AM 78.1 °F - 68.4 °F 72% 30.01 in - South 6.9 mph - N/A   Clear
3:55 AM 78.1 °F - 67.5 °F 70% 30.01 in - South 5.8 mph - N/A   Clear
4:15 AM 78.3 °F - 66.9 °F 68% 30.00 in - South 5.8 mph - N/A   Clear
4:35 AM 79.0 °F - 65.8 °F 64% 30.00 in - South 6.9 mph - N/A   Clear
4:55 AM 79.7 °F - 66.2 °F 63% 30.00 in - SSW 6.9 mph - N/A   Clear
5:15 AM 80.1 °F 82.2 °F 66.6 °F 63% 30.00 in - SSW 5.8 mph - N/A   Clear
5:35 AM 79.9 °F - 67.1 °F 65% 30.00 in - SSW 6.9 mph - N/A   Clear
5:55 AM 80.1 °F 82.4 °F 67.3 °F 65% 30.01 in - South 5.8 mph - N/A   Clear
6:15 AM 80.1 °F 82.4 °F 67.3 °F 65% 30.01 in - SSW 5.8 mph - N/A   Clear
6:35 AM 80.1 °F 82.4 °F 67.5 °F 65% 30.01 in - South 6.9 mph - N/A   Clear
6:55 AM 80.2 °F 82.7 °F 67.6 °F 65% 30.02 in - SSW 8.1 mph - N/A   Clear
7:15 AM 79.7 °F - 68.2 °F 68% 30.02 in - South 6.9 mph - N/A   Clear
7:35 AM 79.7 °F - 68.0 °F 67% 30.03 in - South 6.9 mph - N/A   Clear
7:55 AM 79.7 °F - 68.0 °F 67% 30.02 in - South 9.2 mph - N/A   Clear
8:15 AM 79.9 °F - 67.5 °F 66% 30.03 in - South 5.8 mph - N/A   Clear
8:35 AM 79.7 °F - 67.1 °F 65% 30.05 in - SSW 6.9 mph - N/A   Clear
8:55 AM 80.1 °F 82.2 °F 66.6 °F 63% 30.04 in - SSW 5.8 mph - N/A   Clear
9:15 AM 80.6 °F 82.7 °F 66.2 °F 61% 30.05 in - SSW 6.9 mph - N/A   Clear
9:35 AM 80.2 °F 82.3 °F 66.2 °F 62% 30.06 in - SW 5.8 mph - N/A   Clear
9:55 AM 80.8 °F 82.9 °F 66.0 °F 61% 30.06 in - South 8.1 mph - N/A   Scattered Clouds
10:15 AM 81.1 °F 83.2 °F 65.8 °F 60% 30.07 in - Calm Calm - N/A   Clear
10:35 AM 81.1 °F 83.4 °F 66.4 °F 61% 30.08 in - NNW 8.1 mph - N/A   Scattered Clouds
10:55 AM 81.7 °F 84.0 °F 66.6 °F 60% 30.07 in - Calm Calm - N/A   Scattered Clouds
11:15 AM 82.4 °F 84.6 °F 66.4 °F 58% 30.06 in - Calm Calm - N/A   Scattered Clouds
11:35 AM 82.8 °F 85.3 °F 66.9 °F 59% 30.06 in - SSW 5.8 mph - N/A   Clear
11:55 AM 84.7 °F 87.4 °F 66.9 °F 55% 30.05 in - SSW 9.2 mph - N/A   Scattered Clouds
12:15 PM 84.7 °F 87.4 °F 66.9 °F 55% 30.04 in - SSW 8.1 mph - N/A   Scattered Clouds
12:35 PM 85.8 °F 88.8 °F 67.5 °F 54% 30.04 in - SW 9.2 mph 16.1 mph N/A   Clear
12:55 PM 87.4 °F 90.8 °F 68.0 °F 52% 30.03 in - WSW 8.1 mph - N/A   Clear
1:15 PM 88.7 °F 92.6 °F 68.5 °F 51% 30.03 in - SW 10.4 mph - N/A   Clear
1:35 PM 90.0 °F 94.1 °F 68.7 °F 49% 30.02 in - SW 16.1 mph 19.6 mph N/A   Clear
1:55 PM 90.5 °F 94.6 °F 68.5 °F 48% 30.01 in - WSW 11.5 mph - N/A   Clear
2:15 PM 91.4 °F 96.3 °F 69.3 °F 48% 30.00 in - SW 11.5 mph 17.3 mph N/A   Clear
2:35 PM 91.4 °F 95.8 °F 68.7 °F 47% 30.00 in - SSW 9.2 mph - N/A   Clear
2:55 PM 92.3 °F 97.0 °F 69.1 °F 46% 29.99 in - SW 10.4 mph - N/A   Clear
3:15 PM 92.3 °F 97.0 °F 68.5 °F 46% 29.99 in - SW 8.1 mph - N/A   Clear
3:35 PM 93.0 °F 97.9 °F 68.5 °F 45% 29.98 in - SW 11.5 mph - N/A   Clear
3:55 PM 93.7 °F 98.8 °F 68.9 °F 44% 29.97 in - WSW 8.1 mph - N/A   Clear
4:15 PM 93.9 °F 99.1 °F 68.7 °F 44% 29.97 in 10.0 mi WSW 6.9 mph - N/A   Clear
4:35 PM 95.9 °F 101.3 °F 68.7 °F 41% 29.95 in - SW 10.4 mph - N/A   Scattered Clouds
4:55 PM 95.0 °F 99.5 °F 68.2 °F 41% 29.94 in - West 9.2 mph 16.1 mph N/A   Scattered Clouds
5:15 PM 94.1 °F 97.9 °F 67.1 °F 41% 29.94 in 10.0 mi West 6.9 mph - N/A   Scattered Clouds
5:35 PM 93.4 °F 99.2 °F 69.8 °F 46% 29.94 in - NW 11.5 mph 18.4 mph N/A   Scattered Clouds
5:55 PM 93.0 °F 99.5 °F 70.5 °F 48% 29.94 in - North 15.0 mph - N/A   Mostly Cloudy
6:15 PM 92.3 °F 97.6 °F 69.6 °F 47% 29.94 in - North 16.1 mph 21.9 mph N/A   Scattered Clouds
6:35 PM 91.4 °F 95.4 °F 68.2 °F 46% 29.95 in - NW 13.8 mph 19.6 mph N/A   Clear
6:55 PM 90.7 °F 93.6 °F 66.9 °F 45% 29.97 in - WSW 5.8 mph - N/A   Mostly Cloudy
7:15 PM 81.9 °F 84.8 °F 68.4 °F 63% 29.98 in - SSW 12.7 mph 17.3 mph N/A   Overcast
7:35 PM 82.4 °F 84.8 °F 66.9 °F 59% 29.98 in - SSW 6.9 mph - N/A   Overcast
7:55 PM 82.0 °F 84.9 °F 67.6 °F 62% 29.97 in - Calm Calm - N/A   Mostly Cloudy
8:15 PM 81.9 °F 84.8 °F 68.2 °F 63% 29.97 in - Calm Calm - N/A   Scattered Clouds
8:35 PM 85.6 °F 88.5 °F 67.1 °F 54% 29.98 in - NNW 12.7 mph - N/A   Scattered Clouds
8:55 PM 85.5 °F 87.9 °F 66.4 °F 53% 29.98 in - NNW 12.7 mph 16.1 mph N/A   Clear
9:15 PM 84.6 °F 86.8 °F 66.0 °F 54% 29.99 in - North 12.7 mph 20.7 mph N/A   Clear
9:35 PM 83.3 °F 85.5 °F 66.0 °F 56% 30.00 in - North 12.7 mph 19.6 mph N/A   Clear
9:55 PM 82.4 °F 84.8 °F 66.6 °F 59% 30.01 in - North 10.4 mph - N/A   Clear
10:15 PM 81.5 °F 83.9 °F 67.1 °F 61% 30.02 in - North 10.4 mph - N/A   Clear
10:35 PM 80.6 °F 82.9 °F 66.7 °F 63% 30.03 in - North 8.1 mph - N/A   Clear
10:55 PM 80.2 °F 82.5 °F 66.6 °F 63% 30.04 in - North 8.1 mph 16.1 mph N/A   Clear
11:15 PM 79.7 °F - 66.7 °F 64% 30.04 in - North 4.6 mph - N/A   Clear
11:35 PM 78.8 °F - 66.7 °F 66% 30.04 in - North 6.9 mph - N/A   Clear
11:55 PM 78.3 °F - 66.4 °F 67% 30.04 in - North 5.8 mph - N/A   Clear